Regional Weather Roundup
Issued by NWS

Home | Current Version | Previous Version | Graphics & Text | Print | Product List | Glossary On
Versions: 1 2 3 4 5 6 7 8 9 10 11 12 13 14 15 16 17 18 19 20 21 22 23 24 25 26 27 28 29 30 31 32 33 34 35 36 37 38 39 40 41 42 43 44 45 46 47 48 49 50
000
ASUS43 KMKX 090400
RWRWI

WISCONSIN REGIONAL WEATHER ROUNDUP
NATIONAL WEATHER SERVICE MILWAUKEE/SULLIVAN WI
1000 PM CST THU DEC 08 2016

NOTE: "FAIR" INDICATES FEW OR NO CLOUDS BELOW 12,000 FEET WITH NO
SIGNIFICANT WEATHER AND/OR OBSTRUCTIONS TO VISIBILITY.

WIZ001-002-006>008-014>016-023>028-090500-
NORTHWEST WISCONSIN

CITY           SKY/WX    TMP DP  RH WIND       PRES   REMARKS
SUPERIOR ARPT  CLOUDY    20  11  68 NW9       30.45R WCI   9
ASHLAND        CLOUDY    19  11  70 NW10      30.40R WCI   7
HAYWARD        CLOUDY    19  10  68 VRB3      30.38R
SIREN          CLEAR     14  10  84 NW6       30.45R WCI   5
CUMBERLAND     CLOUDY    19  12  73 NW10G21   30.40S WCI   8
RICE LAKE      CLOUDY    21  13  72 NW14G20   30.43R WCI   8
CHETEK         CLOUDY    21  14  73 NW8       30.41R WCI  12
LADYSMITH      CLOUDY    22  14  73 NW9       30.38S WCI  11
EAU CLAIRE     NOT AVBL
MENOMONIE      FLURRIES  22  16  79 W12       30.44S WCI  10
NEW RICHMOND   MOCLDY    18  12  78 NW10      30.46R WCI   6
OSCEOLA        CLOUDY    19  14  78 W9        30.49S WCI   9
$$

WIZ003>005-009-010-017-018-090500-
NORTH CENTRAL WISCONSIN

CITY           SKY/WX    TMP DP  RH WIND       PRES   REMARKS
MANITOWISH WTR LGT SNOW  17  17  97 NW8       30.28R VSB 1   WCI   7
ARBOR VITAE    CLOUDY    22  16  79 NW7G17    30.27S WCI  13
WOODRUFF       CLOUDY    22  16  79 NW7G17    30.27S WCI  13
RHINELANDER    LGT SNOW  20  16  84 NW6       30.27S FOG     WCI  12
EAGLE RIVER    FLURRIES  19  13  77 NW7       30.26R WCI   9
LAND O LAKES   FLURRIES  18  14  86 NW5       30.27R WCI  11
PHILLIPS       LGT SNOW  19  16  90 NW5       30.32R WCI  12
TOMAHAWK       CLOUDY    18  13  82 W6        30.30S WCI  10
MEDFORD        PTCLDY    18  12  76 NW6       30.32R WCI  10
MERRILL        CLEAR     19  13  77 NW8       30.32S WCI   9
$$

WIZ029-030-035-036-043>047-090500-
CENTRAL WISCONSIN

CITY           SKY/WX    TMP DP  RH WIND       PRES   REMARKS
WAUSAU         PTCLDY    21  13  71 NW14      30.31S WCI   8
MOSINEE        MOCLDY    21  14  73 NW10      30.34R WCI  10
MARSHFIELD       N/A     21  14  74 NW12      30.34R WCI   9
STEVENS POINT  FLURRIES  20  15  80 NW7       30.34S WCI  11
WAUPACA        CLEAR     23  16  74 W8        30.35S WCI  14
WAUTOMA        PTCLDY    21  15  78 W8        30.37R WCI  11
WISC RAPIDS    FLURRIES  23  16  74 NW7       30.37R WCI  15
CAMP DOUGLAS   NOT AVBL
$$

WIZ011>013-019>022-031-037>040-048>050-090500-
NORTHEAST WISCONSIN

CITY           SKY/WX    TMP DP  RH WIND       PRES   REMARKS
ANTIGO         CLOUDY    19  14  80 NW10      30.28R WCI   7
SHAWANO        CLEAR     24  18  80 W6        30.32S WCI  16
OCONTO         CLEAR     22  17  78 W7        30.30R WCI  14
STURGEON BAY   MOCLDY    26  18  71 NW15G22   30.28R WCI  14
GREEN BAY      CLEAR     24  19  81 W10       30.32R WCI  14
MANITOWOC      NOT AVBL
APPLETON       NOT AVBL
CLINTONVILLE   CLEAR     21  16  79 W6        30.33R WCI  14
OSHKOSH        MOCLDY    22  15  75 NW12      30.33R WCI  10
$$

WIZ032>034-041-042-053>061-090500-
SOUTHWEST WISCONSIN

CITY           SKY/WX    TMP DP  RH WIND       PRES   REMARKS
LA CROSSE      CLOUDY    24  15  68 NW12      30.45R WCI  13
SPARTA         FLURRIES  23  18  81 W8        30.42S WCI  14
VIROQUA        CLOUDY    21  16  83 W10       30.40R WCI   9
BOSCOBEL       CLOUDY    24  17  74 W9        30.46R WCI  14
PRAIRIE DU CHI CLOUDY    22  14  71 W9        30.48R WCI  12
PLATTEVILLE    CLOUDY    21  18  86 W12       30.43S WCI   9
$$

WIZ056-057-062-063-064-067-068-090500-
SOUTH CENTRAL WISCONSIN

CITY           SKY/WX    TMP DP  RH WIND       PRES   REMARKS
REEDSBURG      CLOUDY    23  18  83 NW9G17    30.39S WCI  13
BARABOO/DELLS  CLOUDY    23  17  80 W6        30.38S WCI  15
LONE ROCK      NOT AVBL
MINERAL POINT  FLURRIES  23  21  93 W12       30.39S WCI  12
MADISON        PTCLDY    20  15  81 W5        30.38S WCI  13
MIDDLETON      PTCLDY    23  19  83 W13       30.39R WCI  11
WATERTOWN      PTCLDY    21  17  83 W6        30.36R WCI  13
MONROE         FLURRIES  21  19  93 W12       30.38S WCI   9
JANESVILLE     CLEAR     23  19  86 W7        30.39R WCI  15
$$

WIZ051-052-058>065-066-070>072-090500-
SOUTHEAST WISCONSIN

CITY           SKY/WX    TMP DP  RH WIND       PRES   REMARKS
MILWAUKEE      MOCLDY    25  15  66 NW14G23   30.34R WCI  13
WAUKESHA       CLEAR     21  16  79 W10G17    30.35R WCI  10
MILWAUKEE/TIMM CLEAR     23  16  74 W12       30.35R WCI  12
RACINE         CLOUDY    24  15  68 W14G23    30.36R WCI  12
BURLINGTON     CLEAR     26  22  82 W9        30.36R WCI  17
KENOSHA        CLOUDY    22  16  78 W14       30.35R WCI   9
FOND DU LAC    CLOUDY    23  14  68 NW12      30.34R WCI  12
SHEBOYGAN      CLEAR     23  16  74 NW13      30.31R WCI  11
WEST BEND      CLOUDY    23  18  80 W14       30.32R WCI  11
JUNEAU         CLOUDY    21  16  81 W8        30.36R WCI  12
$$

LSZ147-162-090500-
LAKE SUPERIOR

STATION/POSITION TIME  TEMP    WIND        PRES    WAVE
                       AIR SEA DIR/SP/G            HT/PER
                 (UTC) (F)     (DEG/KT/KT) (MB)    (FT/S)
DEVILS ISLAND    0300   22     320/ 13/ 15 1030.2R
PORT WING        0330   23     330/ 18/ 24 1029.8S
SAXON HARBOR     0340   25     310/ 16/ 23 1028.1S
$$

LMZ867-665-643>646-090500-
LAKE MICHIGAN

STATION/POSITION TIME  TEMP    WIND        PRES    WAVE
                       AIR SEA DIR/SP/G            HT/PER
                 (UTC) (F)     (DEG/KT/KT) (MB)    (FT/S)
CHAMBERS ISLAND  0340   27     300/ 11/ 16 1024.7R
NORTHPORT PIER   0340   29     300/ 22/ 28 1024.4R
SISTER BAY       0350   29     340/ 31/ 39   N/A
ALGOMA LAKESHORE 0251          310/ 11/ 15   N/A
KEWAUNEE LAKESHO 0330   26     300/  8/ 13 1025.0R
SHEBOYGAN LAKESH 0300   25     300/ 14/ 17 1026.9R
PORT WASHINGTON  0340   24     290/ 11/ 16 1027.4S
MILWAUKEE LAKESH 0330   24     290/ 15/ 18   N/A
KENOSHA   LAKESH 0300   23     280/ 13/ 18 1027.4
$$

TC  - TEMPERATURE IN CELSIUS
VSB - VISIBILITY IN STATUTE MILES
WCI - WIND CHILL INDEX
HX  - HEAT INDEX





USA.gov is the U.S. government's official web portal to all federal, state and local government web resources and services.